User: anonymous   Login
Location: Ch�tillon
(48.8024°N, 2.2935°E)
Time: 09:09:41
(UTC+00:00)
Language:

Cosmos 2251 Rocket - Orbit

View from above orbital plane
View from above orbital plane
View from above satellite
View from above satellite

Ground track
Ground track

The orbit data is extracted from the following two-line orbital elements,

1 22676U 93036B   22019.37911213  .00000048  00000-0  26555-4 0  9994
2 22676  74.0436 354.1638 0019508 327.0891  32.9044 14.34070011495441
Epoch (UTC): 19 January 2022 09:05:55
Eccentricity: 0.0019508
inclination: 74.0436°
perigee height: 764 km
apogee height: 792 km
right ascension of ascending node: 354.1638°
argument of perigee: 327.0891°
revolutions per day: 14.34070011
mean anomaly at epoch: 32.9044°
orbit number at epoch: 49544

The dashed part of the orbit path shows where the satellite is in the earth's shadow,  

DLR